Regional Weather Roundup
Issued by NWS

Home | Current Version | Previous Version | Graphics & Text | Print | Product List | Glossary On
Versions: 1 2 3 4 5 6 7 8 9 10 11 12 13 14 15 16 17 18 19 20 21 22 23 24 25 26 27 28 29 30 31 32 33 34 35 36 37 38 39 40 41 42 43 44 45 46 47 48 49 50
000
ASUS45 KABQ 261210
RWRNM
WEATHER ROUNDUP FOR NEW MEXICO
NATIONAL WEATHER SERVICE ALBUQUERQUE NM
500 AM MST FRI DEC 26 2014

NOTE: "FAIR" MEANS FEW OR NO CLOUDS BELOW 12,000 FEET AGL WITH NO
       SIGNIFICANT WEATHER OR OBSTRUCTIONS TO VISION.

      THIS PRODUCT IS RELEASED AS TWO VERSIONS.  ONE VERSION NEAR
      THE TOP OF THE HOUR CONTAINING PRELIMINARY DATA FROM ALBUQUERQUE
      AND OTHER STATIONS.  A FINAL VERSION WITH ADDITIONAL DATA IS
      ISSUED ABOUT 10 MINUTES AFTER THE HOUR.

NMZ501-503-504-510>518-261300-
NORTHWEST PLATEAU/NORTHCENTRAL MOUNTAINS

CITY           SKY/WX    TMP DP  RH WIND       PRES   REMARKS
FARMINGTON     FLURRIES  24  22  91 CALM      29.69S
6HR MIN TEMP:  24; 6HR MAX TEMP:  28; 6HR PCP:  0.02;

LOS ALAMOS     CLOUDY    25  25 100 S8        29.70R WCI  16
SANTA FE       CLOUDY    26  23  88 E5        29.70F WCI  20
6HR MIN TEMP:  26; 6HR MAX TEMP:  30; 6HR PCP: TRACE;

TAOS           MOCLDY    19  16  86 CALM      29.68S
ANGEL FIRE     CLOUDY    23  16  74 SE3       29.68S

$$
NMZ402-403-502-505>509-261300-
WESTCENTRAL MOUNTAINS/SOUTHWEST MOUNTAINS

CITY           SKY/WX    TMP DP  RH WIND       PRES   REMARKS
GALLUP         LGT SNOW  21  18  88 SW9       29.70R FOG     WCI  11
6HR MIN TEMP:  16; 6HR MAX TEMP:  24; 6HR PCP:  0.03;

GRANTS         CLEAR      4   2  89 CALM      29.73S
SILVER CITY    MOCLDY    32  27  80 NW7       29.81R WCI  26

$$
NMZ407-409-411-412-261300-
SOUTHERN DESERTS

CITY           SKY/WX    TMP DP  RH WIND       PRES   REMARKS
LORDSBURG      CLOUDY    34  32  93 NW6       29.83R WCI  29
DEMING         CLOUDY    33  33 100 S9        29.81S WCI  25
6HR MIN TEMP:  33; 6HR MAX TEMP:  49; 6HR PCP:  0.13;

LAS CRUCES     LGT SNOW  33  32  98 W10       29.83R WCI  24
HOLLOMAN AFB   MOCLDY    40  37  87 SW15      29.80S WCI  32
ALAMOGORDO     LGT RAIN  39  36  87 W13G28    29.83R WCI  32
T OR C         MOCLDY    38  30  73 S10       29.74R WCI  31
6HR MIN TEMP:  38; 6HR MAX TEMP:  47;


$$
NMZ519>523-261300-
CENTRAL VALLEYS/CENTRAL HIGHLANDS

CITY           SKY/WX    TMP DP  RH WIND       PRES   REMARKS
ALBUQUERQUE    MOCLDY    31  30  96 SE5       29.73F WCI  26
6HR MIN TEMP:  31; 6HR MAX TEMP:  39; 6HR PCP:  0.03;

MORIARTY ARPT  LGT SNOW  28  27  94 CALM      29.73S
6HR MIN TEMP:  28; 6HR MAX TEMP:  33; 6HR PCP:  0.03;

CLINES CORNERS FLURRIES  25  23  92 W8        29.69R WCI  16
6HR MIN TEMP:  26; 6HR MAX TEMP:  30; 6HR PCP:  0.18;

BELEN          CLOUDY    32  30  92 E3        29.74S
6HR MIN TEMP:  30; 6HR MAX TEMP:  37;

SOCORRO        CLOUDY    33  31  91 N3        29.75R
6HR MIN TEMP:  33; 6HR MAX TEMP:  42;


$$
NMZ524>526-539-540-261300-
SOUTHCENTRAL MOUNTAINS

CITY           SKY/WX    TMP DP  RH WIND       PRES   REMARKS
RUIDOSO        SNOW      32  30  93 CALM      29.76S VSB 1/2

$$
NMZ527>531-261300-
NORTHEAST HIGHLANDS/NORTHEAST PLAINS

CITY           SKY/WX    TMP DP  RH WIND       PRES   REMARKS
RATON          LGT SNOW  23  19  85 N13       29.73R FOG     WCI  11
6HR MIN TEMP:  23; 6HR MAX TEMP:  32; 6HR PCP:  0.02;

CLAYTON        CLOUDY    26  25  96 N20       29.78R FOG     WCI  12
6HR MIN TEMP:  26; 6HR MAX TEMP:  35;


$$
NMZ532>537-261300-
EASTCENTRAL PLAINS

CITY           SKY/WX    TMP DP  RH WIND       PRES   REMARKS
TUCUMCARI      MOCLDY    27  24  89 NE10      29.79R WCI  17
6HR MIN TEMP:  27; 6HR MAX TEMP:  42;

CANNON AFB     CLEAR     33  20  58 NW6       29.74R WCI  28
6HR MIN TEMP:  28; 6HR MAX TEMP:  36;

CLOVIS AIRPORT CLEAR     30  21  69 W9        29.74R WCI  22

$$
NMZ028-029-538-261300-
SOUTHEAST PLAINS

CITY           SKY/WX    TMP DP  RH WIND       PRES   REMARKS
ROSWELL        CLEAR     33  23  66 S8        29.71S WCI  26
6HR MIN TEMP:  33; 6HR MAX TEMP:  41;

ARTESIA        CLEAR     34  25  69 S9        29.74S WCI  26
CARLSBAD       NOT AVBL
HOBBS          CLEAR     36  28  75 S8        29.78R WCI  29


$$



USA.gov is the U.S. government's official web portal to all federal, state and local government web resources and services.